When you browse on this site, cookies collect data to enhance your experience and personalize the content and advertising you see.
Visit our Privacy Policy to learn more. By continuing to use the site, you agree to this use of cookies and data.
  • In Romania
  • List of Countries
  • For 7 days
  • Water Temperature
  • Satellite Maps
  • Weather Map
  • Weather Widgets
  • user-avatar
    Login

    Hourly Weather Krasnyy Yar

    Today, 23 July, Tuesday

    Time Temperature Precipitation Wind Pressure Humidity
    00:00 +17°C° 0 mm 2 mps 742 mmHg 83%
    01:00 +17°C° 0.1 mm 2 mps 741 mmHg 86%
    02:00 +17°C° 0.1 mm 2 mps 741 mmHg 89%
    03:00 +17°C° 0.1 mm 2 mps 741 mmHg 92%
    04:00 +17°C° 0.4 mm 2 mps 741 mmHg 93%
    05:00 +17°C° 0.4 mm 2 mps 740 mmHg 93%
    06:00 +17°C° 0.4 mm 3 mps 740 mmHg 94%
    07:00 +18°C° 0.1 mm 3 mps 740 mmHg 92%
    08:00 +18°C° 0.1 mm 4 mps 740 mmHg 89%
    09:00 +19°C° 0.1 mm 5 mps 740 mmHg 87%
    10:00 +20°C° 0.4 mm 5 mps 740 mmHg 85%
    11:00 +21°C° 0.4 mm 4 mps 740 mmHg 83%
    12:00 +22°C° 0.4 mm 4 mps 740 mmHg 81%
    13:00 +22°C° 1.2 mm 4 mps 740 mmHg 79%
    14:00 +22°C° 1.2 mm 4 mps 739 mmHg 77%
    15:00 +23°C° 1.2 mm 4 mps 739 mmHg 75%
    16:00 +23°C° 0.2 mm 4 mps 739 mmHg 76%
    17:00 +22°C° 0.2 mm 3 mps 739 mmHg 77%
    18:00 +22°C° 0.2 mm 3 mps 739 mmHg 79%
    19:00 +21°C° 0 mm 2 mps 739 mmHg 82%
    20:00 +20°C° 0 mm 2 mps 739 mmHg 86%
    21:00 +19°C° 0 mm 1 mps 739 mmHg 89%
    22:00 +19°C° 0 mm 1 mps 739 mmHg 89%
    23:00 +18°C° 0 mm 1 mps 739 mmHg 90%

    Tomorrow, 24 July, Wednesday

    Time Temperature Precipitation Wind Pressure Humidity
    00:00 +16°C° 0 mm 0 mps 739 mmHg 90%
    01:00 +15°C° 0 mm 0 mps 739 mmHg 90%
    02:00 +16°C° 0 mm 1 mps 739 mmHg 91%
    03:00 +16°C° 0 mm 1 mps 739 mmHg 91%
    04:00 +18°C° 0 mm 1 mps 739 mmHg 91%
    05:00 +18°C° 0 mm 1 mps 739 mmHg 91%
    06:00 +17°C° 0 mm 2 mps 739 mmHg 91%
    07:00 +18°C° 0.3 mm 2 mps 739 mmHg 89%
    08:00 +19°C° 0.3 mm 2 mps 739 mmHg 86%
    09:00 +20°C° 0.3 mm 2 mps 739 mmHg 84%
    10:00 +20°C° 1 mm 2 mps 739 mmHg 85%
    11:00 +19°C° 1 mm 2 mps 739 mmHg 87%
    12:00 +20°C° 1 mm 1 mps 739 mmHg 88%
    13:00 +19°C° 0.6 mm 2 mps 739 mmHg 89%
    14:00 +18°C° 0.6 mm 2 mps 739 mmHg 90%
    15:00 +18°C° 0.6 mm 3 mps 739 mmHg 90%
    16:00 +18°C° 1.2 mm 2 mps 739 mmHg 92%
    17:00 +18°C° 1.2 mm 2 mps 739 mmHg 93%
    18:00 +19°C° 1.2 mm 1 mps 739 mmHg 94%
    19:00 +19°C° 0.4 mm 1 mps 739 mmHg 94%
    20:00 +17°C° 0.4 mm 2 mps 739 mmHg 94%
    21:00 +17°C° 0.4 mm 2 mps 739 mmHg 95%
    22:00 +17°C° 0 mm 2 mps 739 mmHg 94%
    23:00 +16°C° 0 mm 2 mps 739 mmHg 94%

    Day after tomorrow, 25 July, Thursday

    Time Temperature Precipitation Wind Pressure Humidity
    00:00 +15°C° 0 mm 1 mps 739 mmHg 94%
    01:00 +15°C° 0 mm 2 mps 739 mmHg 95%
    02:00 +15°C° 0 mm 2 mps 739 mmHg 95%
    03:00 +15°C° 0 mm 2 mps 739 mmHg 96%
    04:00 +15°C° 0 mm 2 mps 739 mmHg 96%
    05:00 +14°C° 0 mm 3 mps 739 mmHg 97%
    06:00 +16°C° 0 mm 3 mps 740 mmHg 97%
    07:00 +17°C° 0 mm 4 mps 740 mmHg 94%
    08:00 +18°C° 0 mm 4 mps 740 mmHg 91%
    09:00 +18°C° 0 mm 4 mps 740 mmHg 88%
    10:00 +19°C° 0 mm 4 mps 740 mmHg 85%
    11:00 +21°C° 0 mm 4 mps 740 mmHg 81%
    12:00 +22°C° 0 mm 4 mps 741 mmHg 78%
    13:00 +21°C° 0.8 mm 5 mps 741 mmHg 80%
    14:00 +21°C° 0.8 mm 6 mps 741 mmHg 81%
    15:00 +21°C° 0.8 mm 7 mps 741 mmHg 83%
    16:00 +20°C° 1.2 mm 6 mps 741 mmHg 87%
    17:00 +19°C° 1.2 mm 6 mps 741 mmHg 90%
    18:00 +16°C° 1.2 mm 5 mps 741 mmHg 94%
    19:00 +17°C° 0.6 mm 5 mps 741 mmHg 94%
    20:00 +17°C° 0.6 mm 5 mps 741 mmHg 94%
    21:00 +17°C° 0.6 mm 6 mps 741 mmHg 95%
    22:00 +17°C° 0.4 mm 5 mps 741 mmHg 95%
    23:00 +16°C° 0.4 mm 5 mps 741 mmHg 95%

    26 July, Friday

    Time Temperature Precipitation Wind Pressure Humidity
    00:00 +17°C° 0.4 mm 4 mps 741 mmHg 95%
    01:00 +17°C° 0.2 mm 4 mps 741 mmHg 95%
    02:00 +17°C° 0.2 mm 3 mps 741 mmHg 95%
    03:00 +17°C° 0.2 mm 3 mps 741 mmHg 95%
    04:00 +17°C° 0 mm 3 mps 741 mmHg 95%
    05:00 +17°C° 0 mm 4 mps 741 mmHg 94%
    06:00 +16°C° 0 mm 5 mps 741 mmHg 94%
    07:00 +17°C° 0.1 mm 5 mps 741 mmHg 92%
    08:00 +20°C° 0.1 mm 5 mps 741 mmHg 89%
    09:00 +21°C° 0.1 mm 6 mps 741 mmHg 87%
    10:00 +22°C° 0.2 mm 6 mps 741 mmHg 81%
    11:00 +23°C° 0.2 mm 7 mps 741 mmHg 76%
    12:00 +24°C° 0.2 mm 7 mps 741 mmHg 70%
    13:00 +26°C° 0.1 mm 7 mps 741 mmHg 69%
    14:00 +26°C° 0.1 mm 7 mps 741 mmHg 68%
    15:00 +26°C° 0.1 mm 7 mps 741 mmHg 67%
    16:00 +26°C° 0.1 mm 6 mps 741 mmHg 70%
    17:00 +25°C° 0.1 mm 5 mps 741 mmHg 73%
    18:00 +25°C° 0.1 mm 4 mps 741 mmHg 75%
    19:00 +23°C° 0 mm 4 mps 741 mmHg 77%
    20:00 +21°C° 0 mm 4 mps 741 mmHg 78%
    21:00 +20°C° 0 mm 4 mps 741 mmHg 80%
    22:00 +19°C° 0 mm 4 mps 741 mmHg 82%
    23:00 +19°C° 0 mm 4 mps 741 mmHg 85%

    27 July, Saturday

    Time Temperature Precipitation Wind Pressure Humidity
    00:00 +18°C° 0 mm 4 mps 741 mmHg 87%
    01:00 +18°C° 0 mm 4 mps 741 mmHg 89%
    02:00 +18°C° 0 mm 4 mps 741 mmHg 91%
    03:00 +17°C° 0 mm 4 mps 741 mmHg 93%
    04:00 +17°C° 0 mm 4 mps 741 mmHg 93%
    05:00 +18°C° 0 mm 4 mps 741 mmHg 93%
    06:00 +18°C° 0 mm 4 mps 741 mmHg 93%
    07:00 +19°C° 0 mm 4 mps 741 mmHg 89%
    08:00 +21°C° 0 mm 5 mps 741 mmHg 84%
    09:00 +22°C° 0 mm 5 mps 741 mmHg 80%
    10:00 +23°C° 0.1 mm 5 mps 741 mmHg 76%
    11:00 +25°C° 0.1 mm 5 mps 740 mmHg 72%
    12:00 +26°C° 0.1 mm 5 mps 740 mmHg 69%
    13:00 +26°C° 0.2 mm 5 mps 740 mmHg 68%
    14:00 +26°C° 0.2 mm 5 mps 740 mmHg 66%
    15:00 +26°C° 0.2 mm 5 mps 739 mmHg 65%
    16:00 +26°C° 0.1 mm 4 mps 739 mmHg 68%
    17:00 +26°C° 0.1 mm 4 mps 739 mmHg 71%
    18:00 +26°C° 0.1 mm 3 mps 739 mmHg 73%
    19:00 +24°C° 0.1 mm 3 mps 739 mmHg 77%
    20:00 +22°C° 0.1 mm 3 mps 739 mmHg 80%
    21:00 +20°C° 0.1 mm 3 mps 738 mmHg 83%
    22:00 +20°C° 0 mm 3 mps 738 mmHg 85%
    23:00 +19°C° 0 mm 3 mps 738 mmHg 88%

    28 July, Sunday

    Time Temperature Precipitation Wind Pressure Humidity
    00:00 +18°C° 0 mm 3 mps 738 mmHg 90%
    01:00 +18°C° 0 mm 3 mps 737 mmHg 91%
    02:00 +18°C° 0 mm 3 mps 737 mmHg 92%
    03:00 +17°C° 0 mm 3 mps 736 mmHg 92%
    04:00 +18°C° 0 mm 4 mps 736 mmHg 92%
    05:00 +18°C° 0 mm 4 mps 736 mmHg 91%
    06:00 +17°C° 0 mm 5 mps 736 mmHg 90%
    07:00 +17°C° 0.2 mm 6 mps 736 mmHg 90%
    08:00 +17°C° 0.2 mm 6 mps 736 mmHg 89%
    09:00 +17°C° 0.2 mm 7 mps 736 mmHg 89%
    10:00 +17°C° 0 mm 7 mps 737 mmHg 85%
    11:00 +17°C° 0 mm 7 mps 737 mmHg 81%
    12:00 +16°C° 0 mm 8 mps 738 mmHg 76%
    13:00 +16°C° 0 mm 8 mps 738 mmHg 72%
    14:00 +17°C° 0 mm 7 mps 738 mmHg 68%
    15:00 +17°C° 0 mm 7 mps 739 mmHg 64%
    16:00 +16°C° 0 mm 7 mps 739 mmHg 65%
    17:00 +15°C° 0 mm 7 mps 739 mmHg 65%
    18:00 +15°C° 0 mm 6 mps 739 mmHg 66%
    19:00 +13°C° 0 mm 6 mps 740 mmHg 69%
    20:00 +12°C° 0 mm 5 mps 740 mmHg 72%
    21:00 +11°C° 0 mm 4 mps 740 mmHg 75%
    22:00 +10°C° 0 mm 4 mps 741 mmHg 75%
    23:00 +8°C° 0 mm 4 mps 741 mmHg 75%
    Show more